Soldotna, AK

11:40 AM AKDT on April 27, 2017 (GMT -0800)
Soldotna

Weather History for PASX - February, 2013

Change the Weather History Date:

Saturday, February 16, 2013

  Actual Average Record
Temperature  
Mean Temperature 14 °F -  
Max Temperature 26 °F 24 °F 42 °F (2015)
Min Temperature 1 °F 6 °F -31 °F (1954)
Degree Days  
Heating Degree Days 52    
Moisture  
Dew Point 11 °F    
Average Humidity 73    
Maximum Humidity 92    
Minimum Humidity 47    
Precipitation  
Precipitation 0.00 in - - ()
Sea Level Pressure  
Sea Level Pressure 29.92 in    
Wind  
Wind Speed 6 mph (East)    
Max Wind Speed 10 mph    
Max Gust Speed 16 mph    
Visibility 9 miles    
Events      
Averages and records for this station are not official NWS values.
T = Trace of Precipitation, MM = Missing Value Source: NWS Daily Summary

Daily Weather History Graph

Daily Weather History Graph

Search for Another Location

Airport or City:

Trip Planner

Search our weather history database for the weather conditions in past years. The results will help you decide how hot, cold, wet, or windy it might be!

Date:

Astronomy

Feb. 16, 2013 Rise Set
Actual Time 8:39 AM AKST 5:57 PM AKST
Civil Twilight 7:55 AM AKST 6:42 PM AKST
Nautical Twilight 7:06 AM AKST 7:31 PM AKST
Astronomical Twilight 6:17 AM AKST 8:20 PM AKST
Moon 10:01 AM AKST (2/16) 2:01 AM AKST (2/16)
Length of Visible Light 10h 46m
Length of Day
9h 18m
Waxing Crescent, 41% of the Moon is Illuminated
Feb 16
Waxing Crescent
Feb 17
First Quarter
Feb 25
Full
Mar 4
Last Quarter
Mar 11
New

Hourly Weather History & Observations

Time (AKST) Temp. Windchill Dew Point Humidity Pressure Visibility Wind Dir Wind Speed Gust Speed Precip Events Conditions
12:16 AM 19.4 °F 8.6 °F 10.4 °F 68% 29.93 in 10.0 mi SSW 9.2 mph - N/A   Clear
12:36 AM 19.4 °F 9.5 °F 10.4 °F 68% 29.94 in 10.0 mi SSW 8.1 mph - N/A   Clear
12:56 AM 19.4 °F 14.3 °F 8.6 °F 63% 29.95 in 10.0 mi SSW 3.5 mph - N/A   Clear
1:16 AM 19.4 °F 11.5 °F 10.4 °F 68% 29.95 in 10.0 mi SSW 5.8 mph - N/A   Clear
1:36 AM 19.4 °F 10.4 °F 10.4 °F 68% 29.96 in 10.0 mi South 6.9 mph - N/A   Clear
1:56 AM 19.4 °F 7.9 °F 10.4 °F 68% 29.96 in 10.0 mi South 10.4 mph - N/A   Clear
2:16 AM 19.4 °F 8.6 °F 8.6 °F 63% 29.96 in 10.0 mi South 9.2 mph 16.1 mph N/A   Clear
2:36 AM 19.4 °F 9.5 °F 10.4 °F 68% 29.96 in 10.0 mi South 8.1 mph - N/A   Clear
2:56 AM 19.4 °F 9.5 °F 10.4 °F 68% 29.96 in 10.0 mi South 8.1 mph - N/A   Clear
3:16 AM 19.4 °F 10.4 °F 10.4 °F 68% 29.96 in 10.0 mi South 6.9 mph - N/A   Clear
3:36 AM 17.6 °F 8.2 °F 10.4 °F 73% 29.97 in 10.0 mi South 6.9 mph - N/A   Clear
3:56 AM 17.6 °F 10.7 °F 8.6 °F 68% 29.97 in 10.0 mi South 4.6 mph - N/A   Clear
4:16 AM 17.6 °F 9.3 °F 8.6 °F 68% 29.97 in 10.0 mi South 5.8 mph - N/A   Clear
4:36 AM 17.6 °F 9.3 °F 10.4 °F 73% 29.97 in 10.0 mi South 5.8 mph - N/A   Clear
4:56 AM 17.6 °F 10.7 °F 10.4 °F 73% 29.97 in 10.0 mi South 4.6 mph - N/A   Clear
5:16 AM 15.8 °F 10.2 °F 10.4 °F 79% 29.97 in 10.0 mi South 3.5 mph - N/A   Clear
5:36 AM 15.8 °F 7.2 °F 10.4 °F 79% 29.97 in 10.0 mi South 5.8 mph - N/A   Clear
5:56 AM 15.8 °F 8.6 °F 8.6 °F 73% 29.98 in 10.0 mi SSE 4.6 mph - N/A   Clear
6:16 AM 15.8 °F 8.6 °F 10.4 °F 79% 29.98 in 10.0 mi SSE 4.6 mph - N/A   Clear
6:36 AM 12.2 °F 6.1 °F 6.8 °F 79% 29.98 in 10.0 mi SSE 3.5 mph - N/A   Clear
6:56 AM 15.8 °F 10.2 °F 10.4 °F 79% 29.98 in 10.0 mi South 3.5 mph - N/A   Clear
7:16 AM 15.8 °F 7.2 °F 10.4 °F 79% 29.98 in 10.0 mi SSE 5.8 mph - N/A   Clear
7:36 AM 17.6 °F 9.3 °F 10.4 °F 73% 29.98 in 10.0 mi SE 5.8 mph - N/A   Clear
7:56 AM 8.6 °F 2.0 °F -0.4 °F 67% 29.98 in 10.0 mi ESE 3.5 mph - N/A   Clear
8:16 AM 10.4 °F 4.0 °F 6.8 °F 85% 29.98 in 10.0 mi East 3.5 mph - N/A   Clear
8:36 AM 5.0 °F - -0.4 °F 78% 29.98 in 5.0 mi Calm Calm - N/A   Clear
8:56 AM 3.2 °F - -0.4 °F 85% 29.98 in 10.0 mi Calm Calm - N/A   Clear
9:16 AM 1.4 °F - -2.2 °F 85% 29.98 in 10.0 mi Calm Calm - N/A   Clear
9:36 AM 3.2 °F -4.2 °F -2.2 °F 78% 29.98 in 10.0 mi ENE 3.5 mph - N/A   Clear
9:56 AM 5.0 °F -6.9 °F -0.4 °F 78% 29.98 in 10.0 mi East 6.9 mph - N/A   Clear
10:16 AM 8.6 °F -1.3 °F 6.8 °F 92% 29.98 in 10.0 mi ESE 5.8 mph - N/A   Clear
10:36 AM 12.2 °F 4.3 °F 8.6 °F 85% 29.98 in 10.0 mi East 4.6 mph - N/A   Clear
10:56 AM 12.2 °F 2.9 °F 8.6 °F 85% 29.98 in 10.0 mi East 5.8 mph - N/A   Clear
11:16 AM 14.0 °F 5.1 °F 10.4 °F 86% 29.98 in 10.0 mi East 5.8 mph - N/A   Clear
11:36 AM 17.6 °F 6.4 °F 10.4 °F 73% 29.98 in 10.0 mi ESE 9.2 mph - N/A   Clear
11:56 AM 19.4 °F 8.6 °F 10.4 °F 68% 29.98 in 10.0 mi East 9.2 mph - N/A   Clear
12:16 PM 19.4 °F 9.5 °F 12.2 °F 74% 29.98 in 10.0 mi East 8.1 mph - N/A   Clear
12:36 PM 21.2 °F 10.9 °F 10.4 °F 63% 29.98 in 10.0 mi East 9.2 mph - N/A   Clear
12:56 PM 23.0 °F 13.9 °F 10.4 °F 59% 29.97 in 10.0 mi East 8.1 mph - N/A   Clear
1:16 PM 24.8 °F 16.9 °F 10.4 °F 54% 29.96 in 10.0 mi East 6.9 mph - N/A   Scattered Clouds
1:36 PM 24.8 °F 19.1 °F 10.4 °F 54% 29.96 in 10.0 mi ESE 4.6 mph - N/A   Scattered Clouds
1:56 PM 26.6 °F 19.1 °F 10.4 °F 51% 29.96 in 10.0 mi East 6.9 mph - N/A   Partly Cloudy
2:16 PM 26.6 °F 21.2 °F 8.6 °F 47% 29.95 in 10.0 mi East 4.6 mph - N/A   Mostly Cloudy
2:36 PM 26.6 °F 21.2 °F 10.4 °F 51% 29.95 in 10.0 mi ENE 4.6 mph - N/A   Overcast
2:56 PM 26.6 °F 19.1 °F 10.4 °F 51% 29.94 in 10.0 mi ENE 6.9 mph - N/A   Overcast
3:16 PM 26.6 °F 19.1 °F 8.6 °F 47% 29.93 in 10.0 mi ENE 6.9 mph - N/A   Overcast
3:36 PM 24.8 °F 16.9 °F 8.6 °F 50% 29.92 in 10.0 mi ENE 6.9 mph - N/A   Overcast
3:56 PM 26.6 °F 21.2 °F 8.6 °F 47% 29.91 in 10.0 mi NE 4.6 mph - N/A   Overcast
4:16 PM 26.6 °F 20.0 °F 8.6 °F 47% 29.91 in 10.0 mi NNE 5.8 mph - N/A   Overcast
4:36 PM 24.8 °F 19.1 °F 14.0 °F 64% 29.91 in 10.0 mi North 4.6 mph - N/A   Overcast
4:56 PM 24.8 °F 19.1 °F 14.0 °F 64% 29.90 in 10.0 mi NNE 4.6 mph - N/A   Overcast
5:16 PM 24.8 °F 19.1 °F 15.8 °F 69% 29.89 in 10.0 mi North 4.6 mph - N/A   Overcast
5:36 PM 23.0 °F 17.0 °F 15.8 °F 74% 29.89 in 10.0 mi NNE 4.6 mph - N/A   Overcast
5:56 PM 21.2 °F - 14.0 °F 74% 29.89 in 10.0 mi Calm Calm - N/A   Overcast
6:16 PM 21.2 °F 16.4 °F 15.8 °F 80% 29.88 in 10.0 mi NE 3.5 mph - N/A   Overcast
6:36 PM 21.2 °F 12.6 °F 15.8 °F 80% 29.87 in 10.0 mi NNE 6.9 mph - N/A   Overcast
6:56 PM 21.2 °F 12.6 °F 15.8 °F 80% 29.86 in 10.0 mi NNE 6.9 mph - N/A   Overcast
7:16 PM 21.2 °F 11.7 °F 15.8 °F 80% 29.84 in 9.0 mi NNE 8.1 mph - N/A   Overcast
7:36 PM 19.4 °F 10.4 °F 15.8 °F 86% 29.84 in 4.0 mi NE 6.9 mph 16.1 mph N/A   Overcast
7:56 PM 19.4 °F 11.5 °F 15.8 °F 86% 29.83 in 5.0 mi NNE 5.8 mph - N/A   Overcast
8:16 PM 19.4 °F 9.5 °F 15.8 °F 86% 29.82 in 4.0 mi NE 8.1 mph 16.1 mph N/A   Overcast
8:36 PM 19.4 °F 11.5 °F 15.8 °F 86% 29.80 in 6.0 mi NE 5.8 mph - N/A   Overcast
8:56 PM 19.4 °F 14.3 °F 14.0 °F 80% 29.80 in 3.0 mi NE 3.5 mph - N/A   Overcast
9:16 PM 19.4 °F 9.5 °F 15.8 °F 86% 29.79 in 3.0 mi NE 8.1 mph - N/A   Overcast
9:36 PM 19.4 °F 10.4 °F 15.8 °F 86% 29.78 in 5.0 mi NE 6.9 mph - N/A   Overcast
9:56 PM 19.4 °F 9.5 °F 15.8 °F 86% 29.77 in 4.0 mi NE 8.1 mph - N/A   Overcast
10:16 PM 19.4 °F 9.5 °F 15.8 °F 86% 29.75 in 2.0 mi NNE 8.1 mph 16.1 mph N/A   Overcast
10:36 PM 19.4 °F 9.5 °F 15.8 °F 86% 29.75 in 5.0 mi NE 8.1 mph - N/A   Overcast
10:56 PM 19.4 °F 10.4 °F 15.8 °F 86% 29.74 in 10.0 mi East 6.9 mph - N/A   Overcast
11:16 PM 19.4 °F 11.5 °F 15.8 °F 86% 29.74 in 10.0 mi NE 5.8 mph - N/A   Overcast
11:36 PM 21.2 °F 11.7 °F 17.6 °F 86% 29.73 in 10.0 mi NE 8.1 mph - N/A   Overcast
11:56 PM 21.2 °F 11.7 °F 17.6 °F 86% 29.72 in 7.0 mi NE 8.1 mph - N/A   Overcast